KLAX

Los Angeles International Airport

Airport
ICAO code
KLAX
IATA Code
LAX
Summary
ICAO Region
NAM
ICAO Territory
Location

Westchester, California

Serving
Los Angeles
Elevation
126 ft
Coordinates
33° 56' 37" N , 118° 24' 31" W
KCC
Airport LOS
Parallel Runway Operation
Metar
KLAX 260053Z 27012KT 10SM FEW011 BKN250 15/12 A3003 RMK AO2 SLP169 T01500117 $

Los Angeles International Airport is the primary airport serving Los Angeles, California. It is most often referred to by its IATA airport code LAX. LAX is located in southwestern Los Angeles in the neighborhood of Westchester, 16 nm from the downtown core.

Runways

Designator Length Width Surface Rops
06L/24R 2720 46 CON Yes/Yes
06R/24L 3135 46 CON Yes/Yes
07R/25L 3382 61 CON Yes/Yes
07L/25R 3685 46 CON Yes/Yes

SKYbrary Partners:

Safety knowledge contributed by: